Regional Weather Roundup
Issued by NWS State College, PA

Home | Current Version | Previous Version | Graphics & Text | Print | Product List | Glossary Off
Versions: 1 2 3 4 5 6 7 8 9 10 11 12 13 14 15 16 17 18 19 20 21 22 23 24 25 26 27 28 29 30 31 32 33 34 35 36 37 38 39 40 41 42 43 44 45 46 47 48 49 50

419
ASUS41 KCTP 261710
RWRCTP

REGIONAL WEATHER ROUNDUP
NATIONAL WEATHER SERVICE STATE COLLEGE PA
100 PM EDT SUN MAR 26 2017

Note: "fair" indicates few or no clouds below 12,000 feet with no
significant weather and/or obstructions to visibility.

* = STATION THAT DOES NOT REPORT PRECIPITATION /E.G. RAIN...SNOW...ETC/
    THUNDER OR FOG.

PAZ002>004-007>009-013>016-020>023-029>032-261800-
WESTERN PENNSYLVANIA

CITY           SKY/WX    TMP DP  RH WIND       PRES   REMARKS
ERIE           CLOUDY    63  47  55 SE15G25   30.02F
MEADVILLE      CLOUDY    60  46  59 SE8       30.04F
FRANKLIN*      CLOUDY    59  46  63 SE14G21   30.08F
NEW CASTLE     FAIR      68  50  52 SE9G22    30.05F
BEAVER COUNTY  SUNNY     63  48  59 S9G17     30.07
BUTLER*        PTSUNNY   64  48  55 E17       30.08F
PITTSBURGH INT CLOUDY    67  49  52 SE16G22   30.04F
PITTSBURGH     CLOUDY    65  46  50 SE9G21    30.06F
INDIANA*       SUNNY     55  46  71 SE18G26   30.17F
LATROBE        PTSUNNY   57  46  67 SE12G21   30.12
WASHINGTON CO* CLOUDY    66  48  52 SE12      30.06F
$$

PAZ004>006-010>012-017>019-024>028-033>037-041-042-045-046-049>053-261800-
CENTRAL PENNSYLVANIA

CITY           SKY/WX    TMP DP  RH WIND       PRES   REMARKS
BRADFORD       CLOUDY    44  42  93 SE13G24   30.16F FOG
DUBOIS         CLOUDY    49  41  74 SE14G24   30.14F HAZE
CLEARFIELD       N/A    N/A N/A N/A MISG      30.22F
JOHNSTOWN      CLOUDY    47  43  86 SE14      30.18F
ALTOONA        CLOUDY    46  41  82 SE10      30.25F HAZE
STATE COLLEGE  CLOUDY    43  39  87 SE12      30.28F FOG
WILLIAMSPORT   CLOUDY    44  36  73 E10G22    30.33F
SELINSGROVE    CLOUDY    43  37  79 SE9       30.35F
FT INDIANTOWN  CLOUDY    42  41  94 E10       30.36F
CAPITAL CITY   CLOUDY    47  38  71 SE12      30.35F
HARRISBURG     CLOUDY    46  40  79 SE12      30.35F
YORK           CLOUDY    45  41  86 E8        30.35F
$$

PAZ038>040-043-044-047-048-054-055-060>062-067>071-261800-
EASTERN PENNSYLVANIA

CITY           SKY/WX    TMP DP  RH WIND       PRES   REMARKS
SCRANTON       CLOUDY    40  33  76 VRB3      30.36F
MOUNT POCONO   CLOUDY    31  31 100 SE13G18   30.34F FOG
ALLENTOWN      CLOUDY    43  33  68 E14       30.42F
QUAKERTOWN*    CLOUDY    41  36  81 E8        30.41F
READING        CLOUDY    44  38  79 E8        30.38F
LANCASTER      CLOUDY    45  40  82 SE14      30.37F
COATESVILLE    CLOUDY    43  37  81 E16G24    30.38F
POTTSTOWN      CLOUDY    41  35  79 E7        30.41F
BLUE BELL      CLOUDY    41  36  81 E12G18    30.40F
DOYLESTOWN     CLOUDY    41  36  82 E3        30.41F
WILLOW GROVE   NOT AVBL
NORTH PHILA    CLOUDY    44  37  76 E17       30.43F
PHILADELPHIA   CLOUDY    44  38  79 NE12G21   30.41F
$$




USA.gov is the U.S. government's official web portal to all federal, state and local government web resources and services.